Weather History for LGMT - September, 2013

Change the Weather History Date:

Wednesday, September 18, 2013

  Actual Average Record
Temperature  
Mean Temperature 76 °F -  
Max Temperature 83 °F 75 °F 93 °F (2011)
Min Temperature 70 °F 61 °F 60 °F (1996)
Cooling Degree Days 12    
Growing Degree Days 26 (Base 50)    
Moisture  
Dew Point 64 °F    
Average Humidity 67    
Maximum Humidity 83    
Minimum Humidity 48    
Precipitation  
Precipitation 0.00 in 0.04 in - ()
Sea Level Pressure  
Sea Level Pressure 29.64 in    
Wind  
Wind Speed 1 mph ()    
Max Wind Speed 7 mph    
Max Gust Speed -    
Visibility 7.2 miles    
Events      
Averages and records for this station are not official NWS values.
T = Trace of Precipitation, MM = Missing Value Source: Averaged Metar Reports

Daily Weather History Graph

Daily Weather History Graph

Search for Another Location

Airport or City:

Trip Planner

Search our weather history database for the weather conditions in past years. The results will help you decide how hot, cold, wet, or windy it might be!

Date:

Astronomy

Sep. 18, 2013 Rise Set
Actual Time 6:57 AM EEST 7:17 PM EEST
Civil Twilight 6:30 AM EEST 7:43 PM EEST
Nautical Twilight 5:59 AM EEST 8:15 PM EEST
Astronomical Twilight 5:27 AM EEST 8:47 PM EEST
Moon 6:28 PM EEST (9/18) 5:38 AM EEST (9/18)
Length of Visible Light 13h 13m
Length of Day
12h 19m
Waxing Gibbous, 98% of the Moon is Illuminated
Sep 18
Waxing Gibbous
Sep 19
Full
Sep 27
Last Quarter
Oct 5
New
Oct 12
First Quarter

Hourly Weather History & Observations

Time (EEST) Temp. Heat Index Dew Point Humidity Pressure Visibility Wind Dir Wind Speed Gust Speed Precip Events Conditions
12:50 AM 71.6 °F - 60.8 °F 69% 29.65 in 6.2 mi Variable 1.2 mph - N/A   Partly Cloudy
1:50 AM 71.6 °F - 64.4 °F 78% 29.65 in 6.2 mi Calm Calm - N/A   Partly Cloudy
2:50 AM 71.6 °F - 64.4 °F 78% 29.65 in 6.2 mi Calm Calm - N/A   Partly Cloudy
3:00 AM 71 °F - 65 °F 76% 29.66 in 9 mi Calm Calm - -   Scattered Clouds
3:50 AM 71.6 °F - 66.2 °F 83% 29.65 in 6.2 mi Variable 3.5 mph - N/A   Scattered Clouds
4:20 AM 71.6 °F - 66.2 °F 83% 29.65 in 6.2 mi Variable 3.5 mph - N/A   Scattered Clouds
4:50 AM 71.6 °F - 64.4 °F 78% 29.62 in 6.2 mi Variable 2.3 mph - N/A   Scattered Clouds
5:20 AM 71.6 °F - 64.4 °F 78% 29.62 in - North - - N/A   Scattered Clouds
5:50 AM 71.6 °F - 64.4 °F 78% 29.62 in - North - - N/A   Scattered Clouds
6:20 AM 71.6 °F - 64.4 °F 78% 29.62 in - North - - N/A   Scattered Clouds
6:50 AM 71.6 °F - 64.4 °F 78% 29.62 in 6.2 mi Variable 2.3 mph - N/A   Scattered Clouds
7:20 AM 71.6 °F - 64.4 °F 78% 29.62 in 6.2 mi Variable 2.3 mph - N/A   Scattered Clouds
7:50 AM 71.6 °F - 64.4 °F 78% 29.62 in 6.2 mi Variable 3.5 mph - N/A   Scattered Clouds
8:20 AM 71.6 °F - 64.4 °F 78% 29.65 in - North - - N/A   Scattered Clouds
8:50 AM 71.6 °F - 64.4 °F 78% 29.65 in - North - - N/A   Scattered Clouds
9:00 AM 72 °F - 64 °F 68% 29.66 in 9 mi SSE 5.8 mph - -   Partly Cloudy
9:20 AM 73.4 °F - 64.4 °F 73% 29.65 in - North - - N/A   Scattered Clouds
9:50 AM 75.2 °F - 64.4 °F 69% 29.65 in - North - - N/A   Scattered Clouds
10:20 AM 77.0 °F - 66.2 °F 69% 29.65 in - North - - N/A   Scattered Clouds
10:50 AM 77.0 °F - 66.2 °F 69% 29.65 in - North - - N/A   Scattered Clouds
11:20 AM 77.0 °F - 66.2 °F 69% 29.65 in - North - - N/A   Partly Cloudy
11:50 AM 77.0 °F - 66.2 °F 69% 29.65 in - North - - N/A   Scattered Clouds
12:20 PM 77.0 °F - 66.2 °F 69% 29.65 in - North - - N/A   Scattered Clouds
12:50 PM 78.8 °F - 66.2 °F 65% 29.65 in - North - - N/A   Scattered Clouds
1:20 PM 78.8 °F - 66.2 °F 65% 29.65 in - North - - N/A   Scattered Clouds
1:50 PM 80.6 °F 82.7 °F 66.2 °F 61% 29.65 in - North - - N/A   Scattered Clouds
2:20 PM 80.6 °F 82.7 °F 66.2 °F 61% 29.65 in - North - - N/A   Scattered Clouds
2:50 PM 82.4 °F 84.6 °F 66.2 °F 58% 29.65 in - North - - N/A   Scattered Clouds
3:00 PM 82 °F - 65 °F 48% 29.67 in 12 mi South 6.9 mph - -   Partly Cloudy
3:20 PM 82.4 °F 84.6 °F 66.2 °F 58% 29.65 in - North - - N/A   Partly Cloudy
3:50 PM 80.6 °F 81.8 °F 62.6 °F 54% 29.62 in - North - - N/A   Scattered Clouds
4:20 PM 80.6 °F 81.8 °F 62.6 °F 54% 29.62 in - North - - N/A   Partly Cloudy
4:50 PM 82.4 °F 83.4 °F 62.6 °F 51% 29.62 in - North - - N/A   Partly Cloudy
5:20 PM 82.4 °F 83.4 °F 62.6 °F 51% 29.62 in - North - - N/A   Partly Cloudy
5:50 PM 78.8 °F - 64.4 °F 61% 29.62 in - North - - N/A   Scattered Clouds
6:20 PM 78.8 °F - 64.4 °F 61% 29.62 in - North - - N/A   Scattered Clouds
6:50 PM 78.8 °F - 62.6 °F 57% 29.62 in - North - - N/A   Scattered Clouds
7:20 PM 78.8 °F - 62.6 °F 57% 29.65 in - North - - N/A   Scattered Clouds
7:50 PM 77.0 °F - 64.4 °F 65% 29.65 in 6.2 mi Calm Calm - N/A   Partly Cloudy
8:20 PM 77.0 °F - 64.4 °F 65% 29.65 in 6.2 mi Calm Calm - N/A   Partly Cloudy
8:50 PM 75.2 °F - 62.6 °F 65% 29.65 in 6.2 mi Calm Calm - N/A   Partly Cloudy
9:00 PM 75 °F - 63 °F 57% 29.67 in 12 mi Calm Calm - -   Scattered Clouds
9:20 PM 75.2 °F - 62.6 °F 65% 29.65 in 6.2 mi Calm Calm - N/A   Partly Cloudy
9:50 PM 75.2 °F - 60.8 °F 61% 29.65 in - North - - N/A   Partly Cloudy
10:20 PM 75.2 °F - 60.8 °F 61% 29.65 in - North - - N/A   Partly Cloudy
10:50 PM 75.2 °F - 62.6 °F 65% 29.65 in - North - - N/A   Partly Cloudy
11:20 PM 75.2 °F - 62.6 °F 65% 29.65 in - North - - N/A   Partly Cloudy
11:50 PM 75.2 °F - 62.6 °F 65% 29.65 in - North - - N/A   Partly Cloudy